Miscellaneous Local Product
Issued by NWS Hastings, NE

Home | Current Version | Previous Version | Text Only | Print | Product List | Glossary On
Versions: 1 2 3 4 5 6 7 8 9 10 11 12 13 14 15 16 17 18 19 20 21 22 23 24 25 26 27 28 29 30 31 32 33 34 35 36 37 38 39 40 41 42 43 44 45 46 47 48 49 50
000
AXUS43 KGID 281502
MISGRI

GID CWA HOURLY WEATHER ROUNDUP
NATIONAL WEATHER SERVICE HASTINGS NE
1000 AM CDT THU MAY 28 2015

NOTE: "FAIR" INDICATES FEW OR NO CLOUDS BELOW 12,000 FEET WITH NO
SIGNIFICANT WEATHER AND/OR OBSTRUCTIONS TO VISIBILITY.

...SOUTH CENTRAL NEBRASKA...

CITY           SKY/WX    TMP DP  RH WIND       PRES   REMARKS
GRAND ISLAND   PTSUNNY   68  60  75 SE14      30.03F
HASTINGS       PTSUNNY   67  61  81 SE10      30.03F
KEARNEY        CLOUDY    68  57  68 SE8       30.02F
ORD            PTSUNNY   69  60  73 SE12      29.99F
YORK           CLOUDY    68  61  77 S13       30.03F
AURORA         PTSUNNY   67  61  80 S9        30.01F
LEXINGTON      CLOUDY    63  62  96 SE9       30.02F
HOLDREGE       CLOUDY    65  58  79 SE8       30.03F
HEBRON         PTSUNNY   67  61  80 SE7       30.03F

...NEBRASKA PANHANDLE...

CITY           SKY/WX    TMP DP  RH WIND       PRES   REMARKS
CHADRON        MOSUNNY   69  52  54 W9        29.95S
ALLIANCE       MOSUNNY   63  55  75 SW10      30.00R
SCOTTSBLUFF    MOSUNNY   63  56  78 MISG      30.02R
SIDNEY         PTSUNNY   63  57  81 NW10      30.01F

...WESTERN AND NORTH CENTRAL NEBRASKA...

CITY           SKY/WX    TMP DP  RH WIND       PRES   REMARKS
VALENTINE      MOSUNNY   68  56  65 S9        29.95S
AINSWORTH      MOSUNNY   70  59  68 S12       29.96S
ONEILL         MOSUNNY   69  61  76 S13       29.99S
BROKEN BOW     PTSUNNY   67  61  81 S9        30.00S
IMPERIAL       PTSUNNY   63  56  78 S8        29.99S
NORTH PLATTE   MOSUNNY   65  57  75 SE7       30.00R
MCCOOK         CLOUDY    61  57  87 MISG      30.02R

...EASTERN NEBRASKA...

CITY           SKY/WX    TMP DP  RH WIND       PRES   REMARKS
NORFOLK        PTSUNNY   72  60  66 S14G20    30.01F
SO SIOUX CITY  MOSUNNY   72  57  59 S15       30.04F
TEKAMAH        CLOUDY    71  59  65 S14       30.03F
COLUMBUS       CLOUDY    66  61  82 S7        30.03F
ALBION         PTSUNNY   69  57  67 S17G24    30.02F
OMAHA EPPLEY   CLOUDY    68  58  70 S13       30.03F
OFFUTT AFB     CLOUDY    66  59  78 SE9       30.04F
MILLARD        CLOUDY    67  61  80 S5        30.04F
LINCOLN        LGT RAIN  65  62  90 S9        30.03F
NEBRASKA CITY  CLOUDY    64  62  94 SE6       30.04F
BEATRICE       CLOUDY    63  62  96 SE7       30.03F
FALLS CITY     LGT RAIN  66  62  87 E10       30.03

...NORTHERN KANSAS...

CITY           SKY/WX    TMP DP  RH WIND       PRES   REMARKS
GOODLAND       CLOUDY    64  59  83 S9        30.01F
HILL CITY      CLOUDY    64  58  80 SE7       30.04S
NORTON         CLOUDY    61  54  77 SE7       30.03S
PHILLIPSBURG   RAIN      63  63 100 E5        30.03F
SMITH CENTER   SUNNY     64  61  88 S7        30.03F
HAYS           CLOUDY    64  55  72 E5        30.03R
RUSSELL        PTSUNNY   68  63  84 SE10      30.00F
CONCORDIA      CLOUDY    69  63  81 SE7       30.01F
SALINA         CLOUDY    69  64  84 SE8       30.01F
TOPEKA         CLOUDY    68  65  90 E9        30.05S



USA.gov is the U.S. government's official web portal to all federal, state and local government web resources and services.